Regional Weather Roundup
Issued by NWS Columbia, SC

Home | Current Version | Previous Version | Text Only | Print | Product List | Glossary On
Versions: 1 2 3 4 5 6 7 8 9 10 11 12 13 14 15 16 17 18 19 20 21 22 23 24 25 26 27 28 29 30 31 32 33 34 35 36 37 38 39 40 41
000
ASUS42 KCAE 250710
RWRCAE
REGIONAL WEATHER ROUNDUP
NATIONAL WEATHER SERVICE COLUMBIA SC
200 AM EST THU DEC 25 2014

NOTE: "FAIR" INDICATES FEW OR NO CLOUDS BELOW 12,000 FEET WITH NO
SIGNIFICANT WEATHER AND/OR OBSTRUCTIONS TO VISIBILITY.

NOT ALL STATIONS ARE QUALITY CONTROLLED BY THE NATIONAL
WEATHER SERVICE. USE DATA WITH CAUTION...ESPECIALLY
DEWPOINT OBSERVATIONS.

SCZ001>056-GAZ040-063>065-077-250800-
...UPSTATE SOUTH CAROLINA...

CITY           SKY/WX    TMP DP  RH WIND       PRES   REMARKS
ANDERSON       CLOUDY    47  41  80 W12       29.86R
LIBERTY        FAIR      46  42  85 W12G18    29.82S
SPARTANBURG    FAIR      50  46  87 W7        29.79R
CLEMSON        CLOUDY    49  38  65 W13       29.85R
GREENVILLE     CLOUDY    48  39  71 W13       29.81R
GREENWOOD      CLOUDY    49  41  74 W10G20    29.87R
GREER          CLOUDY    47  43  86 SW14      29.79R
ROCK HILL      CLOUDY    50  44  80 SW14      29.79R
LAURENS        FAIR      48  45  87 W8G17     29.82R


...CENTRAL SOUTH CAROLINA...

CITY           SKY/WX    TMP DP  RH WIND       PRES   REMARKS
COLUMBIA APT   CLOUDY    53  43  68 W13       29.85R
COLUMBIA OWENS CLOUDY    54  43  66 W12       29.85R
DARLINGTON     CLOUDY    57  52  82 W18G25    29.80R
FLORENCE       CLOUDY    62  57  83 W18       29.77R
MCENTIRE ANGB  CLOUDY    53  47  78 W14       29.84R
ORANGEBURG     CLOUDY    56  47  71 W13G23    29.86R
SUMTER SHAW    CLOUDY    55  48  79 W13G23    29.80R
NEWBERRY       FAIR      48  48 100 W14G20    29.86S
AIKEN          FAIR      50  43  76 W12       29.90R
BARNWELL       CLOUDY    54  45  71 W10       29.89R
MANNING        CLOUDY    63  61  94 W7        29.80R
CAMDEN         PTSUNNY   54  45  71 SW15G21   29.82R
LANCASTER      PTSUNNY   50  48  93 W15       29.80R
WINNSBORO      FAIR      50  45  81 SW12G20   29.81S


...EASTERN AND COASTAL SOUTH CAROLINA...

CITY           SKY/WX    TMP DP  RH WIND       PRES   REMARKS
MYRTLE BEACH   CLOUDY    66  63  88 SW9       29.79F
N MYRTLE BCH   LGT RAIN  60  59  96 S3        29.77F
CONWAY         CLOUDY    64 N/A N/A S6        29.77F
MARION         CLOUDY    64  63  94 SW8       29.75S
HARTSVILLE     CLOUDY    57  54  88 SW12G17   29.81R
FLORENCE       CLOUDY    62  57  83 W18       29.77R
DARLINGTON     CLOUDY    57  52  82 W18G25    29.80R
CHARLESTON APT CLOUDY    64  61  88 W13       29.82R
MOUNT PLEASANT CLOUDY    64  64 100 SW8       29.82R
WALTERBORO     LGT RAIN  61  61 100 W15G28    29.87R
BEAUFORT       CLOUDY    60  55  83 W16G24    29.87R


...EASTERN GEORGIA...

CITY           SKY/WX    TMP DP  RH WIND       PRES   REMARKS
AUGUSTA BUSH F CLOUDY    52  42  69 W9        29.90R
AUGUSTA DANIEL CLOUDY    52  41  66 W9        29.90R
THOMSON        MOCLDY    52  46  79 W8        29.96R
WASHINGTON     FAIR      50  46  87 W10G16    29.90R
CLAXTON        CLOUDY    54  50  87 W7        29.95R
SYLVANIA       CLOUDY    55  49  82 NW15      29.92R
STATESBORO     CLOUDY    54  49  84 NW14G21   29.92S
SAVANNAH       CLOUDY    57  49  74 W15       29.91R


...SOUTHERN NORTH CAROLINA...

CITY           SKY/WX    TMP DP  RH WIND       PRES   REMARKS
CHARLOTTE      CLOUDY    52  46  80 SW13      29.77R
MONROE         CLOUDY    53  46  77 SW17G24   29.75R
WADESBORO      CLOUDY    58  51  77 SW10G17   29.75R
ROCKINGHAM     DRIZZLE   57  55  91 SW12G17   29.77R
RUTHERFORDTON  CLOUDY    48  38  69 W13G20    29.79R
ASHEVILLE      CLOUDY    43  34  70 N14       29.80R

$$


USA.gov is the U.S. government's official web portal to all federal, state and local government web resources and services.